DLH705 LOWW-LSZH

Flight info

Callsign DLH705
Flight time 1h 4m
Altitude 30000
Route SOVIL DCT SITNI DCT BAGSI DCT MATIG DCT TRAUN DCT KONIN/N0339F120 L856 NEGRA
Aircraft A346/H-SDE2E3FGHIJ3J4J5M1RWXY/LB1D1

Departure

Time 2026-05-07 10:28
Airport Vienna International Airport (LOWW)

Arrival

Time 2026-05-07 11:32
Airport Zürich Airport (LSZH)
Time Latitude Longitude Altitude Speed Heading
2026-05-07 10:09 48.11772 16.56193 618 ft 0 kts 343°
2026-05-07 10:17 48.11770 16.56194 618 ft 1 kts 344°
2026-05-07 10:18 48.11754 16.56200 632 ft 3 kts 350°
2026-05-07 10:18 48.11734 16.56204 632 ft 3 kts 360°
2026-05-07 10:18 48.11715 16.56201 632 ft 3 kts 13°
2026-05-07 10:18 48.11698 16.56193 632 ft 3 kts 30°
2026-05-07 10:19 48.11685 16.56177 632 ft 3 kts 51°
2026-05-07 10:19 48.11677 16.56157 632 ft 3 kts 75°
2026-05-07 10:19 48.11675 16.56142 632 ft 3 kts 91°
2026-05-07 10:19 48.11679 16.56115 632 ft 1 kts 115°
2026-05-07 10:20 48.11680 16.56113 632 ft 0 kts 116°
2026-05-07 10:23 48.11679 16.56114 618 ft 0 kts 116°
2026-05-07 10:23 48.11673 16.56134 632 ft 4 kts 116°
2026-05-07 10:23 48.11652 16.56181 632 ft 7 kts 142°
2026-05-07 10:24 48.11593 16.56189 629 ft 11 kts 167°
2026-05-07 10:24 48.11542 16.56266 632 ft 12 kts 118°
2026-05-07 10:24 48.11495 16.56399 622 ft 16 kts 117°
2026-05-07 10:24 48.11439 16.56569 629 ft 20 kts 116°
2026-05-07 10:25 48.11374 16.56768 630 ft 22 kts 116°
2026-05-07 10:25 48.11303 16.56987 625 ft 25 kts 115°
2026-05-07 10:25 48.11226 16.57226 629 ft 26 kts 116°
2026-05-07 10:25 48.11158 16.57433 630 ft 14 kts 116°
2026-05-07 10:26 48.11132 16.57512 629 ft 8 kts 122°
2026-05-07 10:26 48.11092 16.57528 630 ft 7 kts 185°
2026-05-07 10:26 48.11036 16.57496 627 ft 10 kts 201°
2026-05-07 10:26 48.10973 16.57433 629 ft 12 kts 250°
2026-05-07 10:27 48.10987 16.57310 624 ft 0 kts 295°
2026-05-07 10:27 48.11018 16.57212 621 ft 38 kts 295°
2026-05-07 10:27 48.11253 16.56493 630 ft 112 kts 296°
2026-05-07 10:28 48.11692 16.55153 644 ft 170 kts 296°
2026-05-07 10:28 48.12248 16.53475 1252 ft 183 kts 296°
2026-05-07 10:28 48.12772 16.51729 2067 ft 190 kts 278°
2026-05-07 10:28 48.12542 16.49800 2704 ft 198 kts 234°
2026-05-07 10:29 48.11552 16.48265 3308 ft 214 kts 223°
2026-05-07 10:29 48.10491 16.46548 3926 ft 235 kts 229°
2026-05-07 10:29 48.09428 16.44545 4684 ft 251 kts 230°
2026-05-07 10:30 48.07204 16.40340 6570 ft 261 kts 230°
2026-05-07 10:30 48.06089 16.38154 7606 ft 262 kts 231°
2026-05-07 10:30 48.04990 16.35966 8646 ft 264 kts 232°
2026-05-07 10:30 48.03943 16.33690 9692 ft 267 kts 241°
2026-05-07 10:31 48.03358 16.31033 10591 ft 274 kts 258°
2026-05-07 10:31 48.03282 16.28081 11199 ft 292 kts 268°
2026-05-07 10:31 48.03341 16.24988 11702 ft 311 kts 269°
2026-05-07 10:31 48.03417 16.21659 12180 ft 329 kts 269°
2026-05-07 10:32 48.03493 16.18127 12640 ft 347 kts 269°
2026-05-07 10:32 48.03567 16.14451 13273 ft 359 kts 269°
2026-05-07 10:32 48.03639 16.10693 14144 ft 362 kts 268°
2026-05-07 10:32 48.03709 16.06897 15026 ft 365 kts 268°
2026-05-07 10:33 48.03775 16.03064 15878 ft 369 kts 268°
2026-05-07 10:33 48.03838 15.99174 16709 ft 373 kts 268°
2026-05-07 10:33 48.03900 15.95276 17538 ft 377 kts 267°
2026-05-07 10:33 48.03959 15.91375 18336 ft 381 kts 267°
2026-05-07 10:34 48.04017 15.87385 19039 ft 385 kts 267°
2026-05-07 10:34 48.04075 15.83369 19750 ft 388 kts 267°
2026-05-07 10:34 48.04133 15.79310 20473 ft 391 kts 267°
2026-05-07 10:34 48.04190 15.75233 21195 ft 393 kts 266°
2026-05-07 10:35 48.04245 15.71113 21926 ft 396 kts 266°
2026-05-07 10:35 48.04300 15.66968 22644 ft 399 kts 266°
2026-05-07 10:35 48.04354 15.62804 23366 ft 402 kts 266°
2026-05-07 10:35 48.04406 15.58597 24012 ft 405 kts 266°
2026-05-07 10:36 48.04456 15.54358 24589 ft 409 kts 266°
2026-05-07 10:36 48.04504 15.50081 25170 ft 412 kts 266°
2026-05-07 10:36 48.04550 15.45842 25729 ft 416 kts 266°
2026-05-07 10:36 48.04600 15.41462 26294 ft 419 kts 265°
2026-05-07 10:37 48.04649 15.37073 26848 ft 422 kts 266°
2026-05-07 10:37 48.04715 15.32660 27393 ft 426 kts 266°
2026-05-07 10:37 48.04791 15.28207 27932 ft 429 kts 266°
2026-05-07 10:37 48.04865 15.23736 28548 ft 430 kts 266°
2026-05-07 10:38 48.04938 15.19271 29294 ft 429 kts 265°
2026-05-07 10:38 48.05007 15.14791 29854 ft 431 kts 265°
2026-05-07 10:38 48.05073 15.10294 29993 ft 433 kts 265°
2026-05-07 10:38 48.05138 15.05783 29991 ft 434 kts 265°
2026-05-07 10:39 48.05262 14.96734 29997 ft 434 kts 265°
2026-05-07 10:39 48.05378 14.87696 29995 ft 433 kts 265°
2026-05-07 10:40 48.05477 14.78761 29999 ft 432 kts 265°
2026-05-07 10:40 48.05549 14.69765 29998 ft 432 kts 265°
2026-05-07 10:41 48.05613 14.60707 29998 ft 432 kts 265°
2026-05-07 10:41 48.05672 14.51695 30003 ft 432 kts 265°
2026-05-07 10:42 48.05723 14.42711 29999 ft 431 kts 265°
2026-05-07 10:42 48.05767 14.33784 29993 ft 431 kts 265°
2026-05-07 10:43 48.05805 14.24794 29997 ft 431 kts 265°
2026-05-07 10:43 48.05838 14.15802 30001 ft 431 kts 265°
2026-05-07 10:44 48.05863 14.06831 29996 ft 431 kts 264°
2026-05-07 10:44 48.05881 13.97830 30003 ft 430 kts 264°
2026-05-07 10:45 48.05891 13.88917 30006 ft 430 kts 264°
2026-05-07 10:45 48.05896 13.79928 30002 ft 430 kts 264°
2026-05-07 10:46 48.05892 13.70986 30004 ft 429 kts 264°
2026-05-07 10:46 48.05880 13.62044 30006 ft 429 kts 264°
2026-05-07 10:47 48.05704 13.53131 30003 ft 425 kts 260°
2026-05-07 10:47 48.05047 13.44406 30009 ft 424 kts 258°
2026-05-07 10:48 48.04307 13.35680 30002 ft 423 kts 258°
2026-05-07 10:48 48.03558 13.26930 30004 ft 423 kts 258°
2026-05-07 10:49 48.02803 13.18208 30008 ft 423 kts 258°
2026-05-07 10:49 48.02041 13.09458 30007 ft 423 kts 257°
2026-05-07 10:50 48.01271 13.00713 30008 ft 423 kts 257°
2026-05-07 10:50 48.00495 12.91972 30006 ft 423 kts 257°
2026-05-07 10:51 47.99710 12.83198 30237 ft 422 kts 257°
2026-05-07 10:51 47.99304 12.78771 30104 ft 431 kts 258°
2026-05-07 10:51 47.98894 12.74285 30045 ft 442 kts 258°
2026-05-07 10:52 47.98467 12.69625 30020 ft 454 kts 258°
2026-05-07 10:52 47.98034 12.64896 30011 ft 457 kts 259°
2026-05-07 10:52 47.97167 12.55419 30004 ft 459 kts 259°
2026-05-07 10:53 47.96285 12.45902 29998 ft 459 kts 259°
2026-05-07 10:53 47.95398 12.36416 29998 ft 460 kts 259°
2026-05-07 10:54 47.94504 12.26941 30000 ft 460 kts 259°
2026-05-07 10:54 47.93600 12.17460 29997 ft 461 kts 259°
2026-05-07 10:55 47.92684 12.07932 29991 ft 462 kts 260°
2026-05-07 10:55 47.91761 11.98407 29996 ft 462 kts 260°
2026-05-07 10:56 47.90824 11.88828 29993 ft 462 kts 260°
2026-05-07 10:56 47.89884 11.79296 29988 ft 462 kts 260°
2026-05-07 10:57 47.88936 11.69789 29990 ft 463 kts 260°
2026-05-07 10:57 47.87978 11.60248 29995 ft 465 kts 261°
2026-05-07 10:58 47.87009 11.50683 29995 ft 466 kts 261°
2026-05-07 10:58 47.86029 11.41104 30001 ft 467 kts 261°
2026-05-07 10:59 47.85047 11.31575 29999 ft 468 kts 261°
2026-05-07 10:59 47.84055 11.21988 30004 ft 468 kts 261°
2026-05-07 11:00 47.83047 11.12365 30008 ft 468 kts 261°
2026-05-07 11:00 47.82019 11.02666 29999 ft 463 kts 261°
2026-05-07 11:01 47.81515 10.97959 30005 ft 447 kts 261°
2026-05-07 11:01 47.81030 10.93451 29808 ft 435 kts 262°
2026-05-07 11:01 47.80550 10.89006 29124 ft 434 kts 262°
2026-05-07 11:01 47.80071 10.84573 28510 ft 432 kts 262°
2026-05-07 11:02 47.79594 10.80177 27957 ft 428 kts 262°
2026-05-07 11:02 47.79119 10.75812 27420 ft 425 kts 262°
2026-05-07 11:02 47.78645 10.71477 26851 ft 422 kts 262°
2026-05-07 11:02 47.78172 10.67166 26338 ft 419 kts 262°
2026-05-07 11:03 47.77701 10.62893 25797 ft 416 kts 262°
2026-05-07 11:03 47.77235 10.58672 25275 ft 413 kts 262°
2026-05-07 11:03 47.76767 10.54452 24758 ft 410 kts 262°
2026-05-07 11:03 47.76329 10.50515 24300 ft 408 kts 262°
2026-05-07 11:04 47.75871 10.46419 23831 ft 405 kts 262°
2026-05-07 11:04 47.75408 10.42299 23408 ft 400 kts 262°
2026-05-07 11:04 47.74973 10.38272 23195 ft 389 kts 263°
2026-05-07 11:04 47.74657 10.34306 22730 ft 384 kts 266°
2026-05-07 11:05 47.74477 10.30360 22218 ft 381 kts 268°
2026-05-07 11:05 47.74385 10.26421 21729 ft 378 kts 269°
2026-05-07 11:05 47.74301 10.22533 21253 ft 375 kts 269°
2026-05-07 11:05 47.74217 10.18671 20774 ft 372 kts 269°
2026-05-07 11:06 47.74131 10.14829 20302 ft 369 kts 268°
2026-05-07 11:06 47.74073 10.12293 19998 ft 367 kts 268°
2026-05-07 11:06 47.73984 10.08517 19535 ft 365 kts 268°
2026-05-07 11:07 47.73794 10.00692 18614 ft 360 kts 268°
2026-05-07 11:07 47.73704 9.96999 18131 ft 357 kts 268°
2026-05-07 11:07 47.73613 9.93321 17643 ft 355 kts 268°
2026-05-07 11:07 47.73522 9.89665 17168 ft 352 kts 268°
2026-05-07 11:08 47.73430 9.86028 16700 ft 350 kts 268°
2026-05-07 11:08 47.73338 9.82420 16238 ft 347 kts 267°
2026-05-07 11:08 47.73244 9.78838 15785 ft 345 kts 267°
2026-05-07 11:08 47.73150 9.75293 15362 ft 342 kts 267°
2026-05-07 11:09 47.73054 9.71736 14748 ft 345 kts 267°
2026-05-07 11:09 47.72958 9.68190 14321 ft 342 kts 267°
2026-05-07 11:09 47.72861 9.64667 13889 ft 339 kts 267°
2026-05-07 11:09 47.72763 9.61159 13563 ft 332 kts 267°
2026-05-07 11:10 47.72667 9.57764 13364 ft 322 kts 267°
2026-05-07 11:10 47.72574 9.54483 13173 ft 312 kts 267°
2026-05-07 11:10 47.72481 9.51288 12976 ft 303 kts 267°
2026-05-07 11:10 47.72390 9.48193 12659 ft 298 kts 267°
2026-05-07 11:11 47.72158 9.45105 12208 ft 297 kts 257°
2026-05-07 11:11 47.71514 9.42195 11813 ft 295 kts 246°
2026-05-07 11:11 47.70496 9.39549 11419 ft 294 kts 235°
2026-05-07 11:11 47.69233 9.37152 11027 ft 293 kts 232°
2026-05-07 11:12 47.67940 9.34819 10646 ft 291 kts 232°
2026-05-07 11:12 47.66655 9.32508 10260 ft 290 kts 232°
2026-05-07 11:12 47.65388 9.30222 10055 ft 282 kts 232°
2026-05-07 11:12 47.64141 9.27966 9864 ft 274 kts 232°
2026-05-07 11:13 47.63735 9.27230 9774 ft 272 kts 232°
2026-05-07 11:13 47.61740 9.23608 9157 ft 269 kts 232°
2026-05-07 11:13 47.60593 9.21418 8787 ft 268 kts 237°
2026-05-07 11:13 47.59686 9.19064 8424 ft 266 kts 246°
2026-05-07 11:14 47.59028 9.16508 8046 ft 264 kts 254°
2026-05-07 11:14 47.58619 9.13839 7686 ft 263 kts 259°
2026-05-07 11:14 47.58290 9.11151 7344 ft 262 kts 260°
2026-05-07 11:14 47.57972 9.08503 7056 ft 259 kts 260°
2026-05-07 11:15 47.57679 9.05865 7023 ft 260 kts 263°
2026-05-07 11:15 47.57527 9.03182 7017 ft 261 kts 268°
2026-05-07 11:15 47.57544 9.00480 7025 ft 262 kts 273°
2026-05-07 11:15 47.57664 8.97791 7034 ft 261 kts 274°
2026-05-07 11:16 47.57798 8.95065 7024 ft 261 kts 274°
2026-05-07 11:16 47.57929 8.92376 7040 ft 261 kts 274°
2026-05-07 11:16 47.58057 8.89716 6893 ft 256 kts 274°
2026-05-07 11:16 47.58183 8.87063 6494 ft 258 kts 274°
2026-05-07 11:17 47.58307 8.84405 6165 ft 257 kts 274°
2026-05-07 11:17 47.58428 8.81815 6017 ft 244 kts 274°
2026-05-07 11:17 47.58540 8.79398 6016 ft 226 kts 274°
2026-05-07 11:17 47.58643 8.77177 6021 ft 214 kts 273°
2026-05-07 11:18 47.58741 8.75034 6034 ft 205 kts 273°
2026-05-07 11:18 47.58837 8.72919 6033 ft 204 kts 273°
2026-05-07 11:18 47.58931 8.70837 6010 ft 202 kts 274°
2026-05-07 11:18 47.59026 8.68734 5899 ft 202 kts 273°
2026-05-07 11:19 47.59121 8.66612 5812 ft 203 kts 273°
2026-05-07 11:19 47.59216 8.64511 5698 ft 202 kts 273°
2026-05-07 11:19 47.59307 8.62444 5514 ft 202 kts 274°
2026-05-07 11:19 47.59403 8.60310 5491 ft 204 kts 273°
2026-05-07 11:20 47.59495 8.58210 5395 ft 203 kts 273°
2026-05-07 11:20 47.59587 8.56144 5279 ft 202 kts 273°
2026-05-07 11:20 47.59679 8.54058 5184 ft 203 kts 273°
2026-05-07 11:20 47.59770 8.51965 5049 ft 202 kts 273°
2026-05-07 11:21 47.59861 8.49884 4935 ft 202 kts 273°
2026-05-07 11:21 47.59950 8.47801 4810 ft 202 kts 273°
2026-05-07 11:21 47.60040 8.45712 4686 ft 208 kts 273°
2026-05-07 11:21 47.60136 8.43446 4587 ft 229 kts 273°
2026-05-07 11:22 47.60236 8.41071 4469 ft 232 kts 273°
2026-05-07 11:22 47.60340 8.38677 4332 ft 233 kts 273°
2026-05-07 11:22 47.60441 8.36279 4196 ft 232 kts 274°
2026-05-07 11:22 47.60548 8.33893 4060 ft 231 kts 273°
2026-05-07 11:23 47.60650 8.31514 3990 ft 230 kts 274°
2026-05-07 11:23 47.60754 8.29174 3985 ft 230 kts 273°
2026-05-07 11:23 47.60859 8.26768 3995 ft 230 kts 274°
2026-05-07 11:23 47.60962 8.24390 3987 ft 229 kts 274°
2026-05-07 11:24 47.61324 8.22205 3929 ft 215 kts 297°
2026-05-07 11:24 47.62270 8.20513 3956 ft 205 kts 321°
2026-05-07 11:24 47.63551 8.19576 3990 ft 208 kts 344°
2026-05-07 11:24 47.64977 8.19475 4005 ft 198 kts
2026-05-07 11:25 47.66229 8.20169 3981 ft 187 kts 29°
2026-05-07 11:25 47.67213 8.21488 4000 ft 189 kts 52°
2026-05-07 11:25 47.67803 8.23262 3983 ft 191 kts 75°
2026-05-07 11:25 47.67907 8.25174 3961 ft 181 kts 98°
2026-05-07 11:26 47.67554 8.26968 3972 ft 179 kts 120°
2026-05-07 11:26 47.66827 8.28450 3982 ft 175 kts 137°
2026-05-07 11:26 47.65916 8.29678 3997 ft 175 kts 142°
2026-05-07 11:26 47.64984 8.30846 4005 ft 175 kts 142°
2026-05-07 11:27 47.64046 8.32036 3983 ft 175 kts 142°
2026-05-07 11:27 47.63142 8.33211 3996 ft 175 kts 141°
2026-05-07 11:27 47.62237 8.34415 3990 ft 175 kts 140°
2026-05-07 11:27 47.61326 8.35646 3979 ft 175 kts 140°
2026-05-07 11:28 47.60427 8.36871 4005 ft 176 kts 140°
2026-05-07 11:28 47.59528 8.38104 3987 ft 174 kts 140°
2026-05-07 11:28 47.58661 8.39294 3984 ft 171 kts 140°
2026-05-07 11:28 47.57774 8.40512 3991 ft 171 kts 140°
2026-05-07 11:29 47.56911 8.41694 3819 ft 171 kts 140°
2026-05-07 11:29 47.56029 8.42903 3594 ft 169 kts 140°
2026-05-07 11:29 47.55174 8.44076 3348 ft 165 kts 140°
2026-05-07 11:29 47.54346 8.45211 3129 ft 162 kts 140°
2026-05-07 11:30 47.53504 8.46364 2913 ft 159 kts 141°
2026-05-07 11:30 47.52693 8.47472 2695 ft 158 kts 141°
2026-05-07 11:30 47.51884 8.48578 2473 ft 157 kts 140°
2026-05-07 11:30 47.51078 8.49678 2231 ft 158 kts 139°
2026-05-07 11:31 47.50270 8.50785 2019 ft 158 kts 139°
2026-05-07 11:31 47.49457 8.51899 1796 ft 158 kts 138°
2026-05-07 11:31 47.48651 8.53009 1577 ft 157 kts 137°
2026-05-07 11:31 47.47851 8.54108 1415 ft 154 kts 138°
2026-05-07 11:32 47.46840 8.55478 1417 ft 40 kts 137°
2026-05-07 11:32 47.46652 8.55654 1416 ft 19 kts 158°
2026-05-07 11:32 47.46547 8.55696 1416 ft 13 kts 167°
2026-05-07 11:33 47.46437 8.55732 1407 ft 17 kts 167°
2026-05-07 11:33 47.46355 8.55798 1412 ft 7 kts 137°
2026-05-07 11:33 47.46311 8.55858 1414 ft 10 kts 137°
2026-05-07 11:33 47.46249 8.55941 1414 ft 13 kts 137°
2026-05-07 11:34 47.46166 8.55995 1413 ft 14 kts 176°
2026-05-07 11:34 47.46054 8.55983 1406 ft 18 kts 186°
2026-05-07 11:34 47.45954 8.55946 1413 ft 12 kts 230°
2026-05-07 11:34 47.45944 8.55818 1406 ft 8 kts 275°
2026-05-07 11:35 47.45949 8.55752 1405 ft 7 kts 286°
2026-05-07 11:35 47.45983 8.55729 1408 ft 6 kts
2026-05-07 11:35 47.46000 8.55732 1412 ft 1 kts
2026-05-07 11:35 47.46004 8.55733 1412 ft 1 kts
2026-05-07 11:36 47.46019 8.55735 1412 ft 0 kts
2026-05-07 11:36 47.46026 8.55736 1412 ft 2 kts
2026-05-07 11:36 47.46029 8.55736 1412 ft 0 kts